TIME,DELAY(SENSOR),PRES,T(CTD),SAL,OXYGEN,RAWTEMP,T(OPTODE),TCPHASE,FLUOR,BETA(BETA700),BETA(BETA412),BETA(BETA440),CDOM,C(CSC),ED(ED411.90),ED(ED443.80),ED(ED489.40),ED(ED554.70),LU(LU412.20),LU(LU443.80),LU(LU489.40),LU(LU555.00),COMP,TILTX,TILTX(TILTY),CHECK
1368719503,5803,496.5299987792969000,17.0456008911132800,36.3742980957031250,217.8056945800781200,186.7893981933593800,17.0465908050537100,32.0337104797363300,50,99,95,81,68,10703,2146958226,2147516379,2147270436,2147459684,2147081737,2146949760,2147657636,2147118180,2566,-1,9,59856
1368719630,5808,484.7900085449219000,17.1842994689941400,36.4015998840332000,220.5493011474609400,181.8656005859375000,17.1950702667236330,31.8208293914794920,50,102,95,79,68,10702,2146957942,2147515163,2147271195,2147458752,2147079698,2146952685,2147654400,2147121563,1820,-1,8,32127
1368719745,5805,474.5100097656250000,17.3285999298095700,36.4290008544921900,222.3309936523437500,177.5057983398437500,17.3265590667724600,31.6683292388916000,50,99,95,80,68,10701,2146955675,2147517714,2147270701,2147458715,2147080960,2146954560,2147654573,2147118080,975,-1,8,785
1368719874,5808,463.1000061035156000,17.4015007019042970,36.4430007934570300,223.5608062744140600,174.6703033447265600,17.4120998382568360,31.5657005310058600,50,100,96,79,67,10701,2146958674,2147513718,2147268626,2147457865,2147081801,2146959478,2147652544,2147130194,669,-1,8,49659
1368720001,5804,452.2000122070312500,17.5573005676269530,36.4695014953613300,225.0845031738281200,170.0722045898437500,17.5508308410644530,31.4252204895019530,50,101,95,81,67,10700,2146957037,2147516443,2147267986,2147457590,2147080320,2146961490,2147647579,2147127698,1083,-1,8,30519
1368720130,5806,441.0100097656250000,17.6142997741699220,36.4796981811523440,225.7037048339843800,167.9105072021484400,17.6160602569580080,31.3642997741699220,50,101,94,81,68,10693,2146955602,2147516123,2147270619,2147453723,2147081234,2146958537,2147654994,2147119460,510,-1,8,27673
1368720257,5806,430.1799926757812500,17.7227001190185550,36.5003013610839840,227.2760009765625000,164.5191040039062500,17.7184200286865230,31.2388401031494140,50,101,96,81,66,10696,2146954907,2147515099,2147272009,2147452233,2147080274,2146959140,2147652150,2147126857,277,-1,8,64988
1368720384,5805,419.4899902343750000,17.8050994873046880,36.5131988525390600,228.2268981933593800,161.8639068603515600,17.7985591888427730,31.1554603576660160,50,101,95,80,67,10693,2146956836,2147517476,2147269056,2147454838,2147078683,2146956635,2147655515,2147129417,3187,-1,8,33444
1368720513,5804,408.6700134277344000,17.8311004638671880,36.5164985656738300,227.1755065917968800,160.8815002441406200,17.8282203674316400,31.1949501037597660,50,99,94,80,67,10698,2146958198,2147516644,2147268132,2147453586,2147078025,2146957961,2147652361,2147125705,3113,-1,8,54657
1368720652,5804,396.8800048828125000,17.8495006561279300,36.5186996459960940,227.0375976562500000,160.2702026367187500,17.8466796875000000,31.1935005187988280,50,102,95,81,67,10696,2146956278,2147515657,2147268452,2147453750,2147085165,2146958921,2147653275,2147125997,3447,-1,8,42998
1368720781,5804,386.1799926757812500,17.9011001586914060,36.5223007202148440,224.4884948730468800,158.6952972412109400,17.8942298889160160,31.3010406494140620,50,104,96,80,68,10692,2146958637,2147517366,2147268562,2147453312,2147082002,2146954413,2147656438,2147125641,3355,-1,8,42339
1368720908,5806,375.7600097656250000,17.9687995910644530,36.5292015075683600,222.7792053222656200,156.4172973632812500,17.9630107879638670,31.3578205108642580,51,102,96,81,66,10689,2146956781,2147516854,2147270381,2147450633,2147083154,2146960749,2147652946,2147127945,366,-1,8,39142
1368721049,5807,364.3099975585937500,17.9978008270263670,36.5318984985351560,221.9983062744140600,155.4064025878906200,17.9935398101806640,31.3842105865478500,50,105,97,81,67,10690,2146954624,2147512530,2147268662,2147449572,2147083830,2146960329,2147657929,2147125787,421,-1,8,6163
1368721188,5807,353.5499877929687500,18.1165008544921880,36.5497016906738300,221.7322998046875000,151.5760040283203000,18.1092300415039060,31.3458900451660160,51,106,96,81,68,10689,2146955401,2147515968,2147267181,2147448310,2147082331,2146960091,2147657042,2147133485,722,-1,8,56326
1368721339,5807,342.5899963378906000,18.2352008819580080,36.5617980957031250,220.2498931884765600,147.5919952392578000,18.2295894622802730,31.3691997528076170,50,104,96,82,68,10682,2146956333,2147520429,2147268608,2147450496,2147081179,2146958345,2147650340,2147128301,2662,-1,8,22606
1368721475,5802,331.0599975585937500,18.3281993865966800,36.5710983276367200,217.9349975585937500,143.8027954101562500,18.3441009521484380,31.4387397766113280,50,105,96,82,68,10684,2146953837,2147516928,2147270400,2147451099,2147081654,2146964141,2147654500,2147128201,2139,-1,8,30728
1368721590,5807,319.8699951171875000,18.4594993591308600,36.5870018005371100,216.4530944824218800,140.2615051269531200,18.4511394500732420,31.4689197540283200,50,106,96,81,68,10684,2146957668,2147516745,2147266569,2147451876,2147070720,2146961700,2147656822,2147129892,1718,-1,8,53262
1368721707,5805,308.3099975585937500,18.5396995544433600,36.5960006713867200,214.9934997558593800,137.5157928466797000,18.5341491699218750,31.5096092224121100,50,106,95,81,68,10682,2146956946,2147519067,2147268516,2147449609,2147078564,2146958601,2147653842,2147128475,1532,-2,8,17909
1368721822,5804,296.6300048828125000,18.6187992095947270,36.6055984497070300,214.5933990478515600,134.8164978027343800,18.6157798767089840,31.4944095611572270,50,104,96,81,67,10685,2146957586,2147516873,2147265014,2147448731,2147077202,2146963428,2147661238,2147131300,1552,-1,8,12599
1368721925,5802,286.1000061035156000,18.6805000305175780,36.6099014282226560,215.8742980957031200,132.8574066162109400,18.6750392913818360,31.3997707366943360,51,102,96,81,67,10675,2146954368,2147515163,2147269074,2147450496,2147079396,2146963785,2147663734,2147128914,1289,-2,8,21741
1368722049,5805,274.1900024414062500,18.8159008026123050,36.6248016357421900,212.1472930908203000,128.2471008300781200,18.8145103454589840,31.5370597839355470,51,105,96,80,67,10683,2146955904,2147518802,2147267236,2147447570,2147076251,2146967808,2147669897,2147130916,96,-1,8,29232
1368722183,5803,264.0299987792969000,18.9612998962402340,36.6369018554687500,207.2257995605468800,123.7042999267578100,18.9519996643066400,31.7453498840332030,52,105,97,81,68,10680,2146953517,2147516141,2147265773,2147450230,2147075730,2146966875,2147679104,2147131894,2369,-1,8,26957
1368722355,5804,251.7599945068359400,19.0240993499755860,36.6250991821289060,215.3914947509765600,121.3116989135742200,19.0244407653808600,31.2698497772216800,50,105,96,80,68,10675,2146952941,2147516013,2147263296,2147445321,2147079122,2146975195,2147692370,2147128914,1142,-1,9,24378
1368722490,5806,239.6399993896484400,19.1917991638183600,36.6220016479492200,222.0050964355468800,116.1007003784179700,19.1822605133056640,30.8562202453613280,50,107,96,82,66,10676,2146953837,2147516059,2147267995,2147449993,2147082048,2146988525,2147706212,2147132864,1263,-1,8,32763
1368722605,5809,229.0099945068359400,19.3106002807617200,36.6152000427246100,231.9736022949218800,112.0759963989257800,19.3041992187500000,30.3076190948486330,51,107,97,82,67,10670,2146957046,2147516297,2147267035,2147443922,2147076982,2146994889,2147729142,2147132315,1786,-1,9,49609
1368722722,5804,218.4900054931640600,19.4638004302978500,36.6295013427734400,228.3529052734375000,106.9862976074218800,19.4584808349609380,30.4172592163085940,50,109,97,83,66,10668,2146955474,2147513353,2147267355,2147444068,2147083410,2147019931,2147774592,2147136704,1977,-1,8,44768
1368722849,5807,207.2500000000000000,19.5631008148193360,36.6313018798828100,231.3710937500000000,102.8994979858398400,19.5824108123779300,30.2162704467773440,51,109,97,83,65,10674,2146957824,2147518217,2147272950,2147445686,2147085074,2147041225,2147822720,2147137078,2645,-1,8,53090
1368722983,5807,196.2700042724609400,19.7411994934082030,36.6517982482910160,230.2507934570312500,97.7449874877929700,19.7388095855712900,30.2029895782470700,52,107,98,82,66,10672,2146956333,2147518601,2147275382,2147442724,2147089334,2147078134,2147888265,2147142272,2752,-1,8,38200
1368723038,5804,192.3099975585937500,19.8087997436523440,36.6523017883300800,229.2720031738281200,95.4490585327148400,19.8084907531738280,30.2207603454589840,52,108,96,80,67,10671,2146957833,2147520621,2147271972,2147439350,2147093677,2147094409,2147915364,2147141860,2824,-1,8,47074
1368723093,5808,188.5200042724609400,19.8295993804931640,36.6430015563964840,233.0845947265625000,94.7569885253906200,19.8295001983642580,30.0273399353027340,54,108,96,83,65,10668,2146956196,2147518976,2147270509,2147440832,2147096429,2147114221,2147951314,2147143744,32,-1,8,51727
1368723148,5809,184.7299957275390600,19.8736000061035160,36.6436004638671900,235.3800048828125000,93.4306564331054700,19.8697700500488280,29.9007492065429700,53,106,98,82,66,10671,2146953947,2147520237,2147277412,2147439808,2147099529,2147133952,2147990729,2147145865,3578,-1,8,59451
1368723203,5801,180.8899993896484400,19.9592990875244140,36.6512985229492200,235.0957946777343800,90.5899963378906200,19.9560394287109380,29.8771800994873050,55,106,97,82,66,10670,2146957376,2147519808,2147275437,2147441289,2147108598,2147157705,2148033435,2147149659,3475,-1,8,11579
1368723258,5803,177.0599975585937500,20.0230007171630860,36.6626014709472660,232.9317932128906200,88.7888565063476600,20.0107498168945300,29.9567909240722660,54,106,97,81,65,10672,2146956278,2147519954,2147278372,2147442020,2147110345,2147173814,2148053494,2147147977,3513,-1,9,43301
1368723336,5805,171.8399963378906200,20.0811996459960940,36.6543998718261700,234.8305053710937500,86.6044464111328100,20.0771198272705080,29.8381900787353500,55,107,97,82,66,10669,2146958509,2147523072,2147279460,2147438098,2147116059,2147216438,2148139858,2147156626,551,-1,8,55888
1368723403,5808,168.0700073242187500,20.1107006072998050,36.6521987915039060,236.3679962158203000,85.6865768432617200,20.1050205230712900,29.7536201477050780,56,109,98,82,66,10664,2146957028,2147523145,2147284141,2147442166,2147129654,2147260772,2148206299,2147161161,741,-1,9,63203
1368723470,5807,164.3899993896484400,20.1861000061035160,36.6640014648437500,236.2897949218750000,83.2636871337890600,20.1786594390869140,29.7262096405029300,55,107,97,82,66,10671,2146959515,2147523254,2147286080,2147441078,2147136329,2147309604,2148284544,2147165878,710,-1,8,14396
1368723549,5807,160.1699981689453000,20.2837009429931640,36.6721000671386700,234.4447937011718800,80.2269134521484400,20.2709999084472660,29.7740097045898440,55,114,96,83,67,10667,2146957851,2147527323,2147291739,2147438930,2147153243,2147378358,2148396187,2147171968,487,-2,9,9717
1368723630,5807,156.2700042724609400,20.3124008178710940,36.6708984375000000,234.7507019042968800,79.1452789306640600,20.3038902282714840,29.7452907562255860,56,105,97,83,66,10669,2146956937,2147526774,2147293184,2147438454,2147164114,2147424466,2148465974,2147172873,222,-2,9,40870
1368723709,5806,152.8999938964843800,20.3791007995605470,36.6736984252929700,235.4082031250000000,76.9739608764648400,20.3699398040771500,29.6864299774169920,58,108,98,81,65,10665,2146958217,2147519817,2147287405,2147438628,2147162578,2147387300,2148382564,2147171108,222,-1,9,57357
1368723824,5806,148.8500061035156200,20.4682006835937500,36.6769981384277340,235.5451965332031200,74.0574569702148400,20.4586906433105470,29.6422805786132800,61,112,97,82,66,10665,2146957577,2147531657,2147296374,2147440018,2147195081,2147523419,2148631177,2147185746,481,-2,8,23367
1368723947,5806,144.7899932861328000,20.5326995849609380,36.6808013916015600,234.5820007324218800,71.4186935424804700,20.5390090942382800,29.6536006927490230,61,112,97,81,66,10653,2146958473,2147528502,2147292123,2147438107,2147179904,2147423798,2148409097,2147175689,291,-2,9,57249
1368724038,5807,140.9299926757812500,20.6627998352050780,36.6873016357421900,231.7037048339843800,67.4458389282226600,20.6599903106689450,29.7391204833984380,69,117,98,83,66,10648,2146962258,2147533092,2147304941,2147437037,2147233545,2147616704,2148756461,2147189604,3188,-1,9,16080
1368724141,5804,136.4700012207031200,20.7745990753173830,36.6988983154296900,226.6210021972656200,64.0372085571289000,20.7638492584228500,29.9415397644042970,75,115,99,84,66,10641,2146960475,2147539684,2147315684,2147438116,2147300790,2147845074,2149131062,2147215067,3512,-2,9,59757
1368724234,5804,132.2400054931640600,20.7317008972167970,36.6735992431640600,229.9044036865234400,65.2160034179687500,20.7279300689697270,29.7968807220459000,79,115,98,84,65,10637,2146964022,2147538532,2147320448,2147439451,2147343826,2147932580,2149265709,2147224173,3013,-2,9,1326
1368724313,5803,128.4400024414062500,20.8073997497558600,36.6776008605957000,236.2144012451172000,63.0780296325683600,20.7930793762207030,29.4697303771972660,83,119,96,83,65,10637,2146964114,2147542144,2147328548,2147435529,2147393115,2148055734,2149444141,2147239808,2858,-1,9,35427
1368724392,5803,124.6500015258789000,20.8581008911132800,36.6824989318847660,235.7234039306640600,61.1553306579589840,20.8516902923584000,29.4679298400878900,82,116,99,83,65,10633,2146966957,2147545325,2147338870,2147434816,2147460160,2148218093,2149684342,2147251282,3351,-1,9,59797
1368724471,5805,120.7799987792968800,20.9188003540039060,36.6823997497558600,235.5330963134765600,59.1351699829101560,20.9132900238037100,29.4511299133300780,90,118,98,84,66,10629,2146962715,2147538038,2147318601,2147438445,2147370624,2147851236,2149012443,2147213229,3213,-2,9,15193
1368724564,5802,116.5299987792968800,20.9671001434326170,36.6819992065429700,235.3852996826172000,57.5379104614257800,20.9619998931884770,29.4374809265136720,93,119,98,83,64,10623,2146968484,2147560557,2147362313,2147439488,2147657874,2148657536,2150313371,2147297097,3113,-2,9,16351
1368724655,5805,112.6500015258789000,20.9724006652832030,36.6722984313964840,236.1340942382812500,57.3276405334472660,20.9684200286865230,29.3998203277587900,96,118,98,87,63,10623,2146976146,2147566976,2147380681,2147436233,2147792512,2148928969,2150707968,2147331638,307,-1,9,40376
1368724758,5807,108.9700012207031200,21.0373001098632800,36.6593017578125000,237.6896972656250000,55.2962684631347660,21.0303897857666000,29.3014602661132800,109,121,99,83,64,10613,2146979163,2147578651,2147400713,2147440749,2147946962,2149232621,2151150994,2147367350,888,-2,9,48132
1368724896,5806,105.0500030517578100,21.1863994598388670,36.6570014953613300,240.5500030517578000,50.1585807800293000,21.1872100830078120,29.1047706604003900,125,120,97,84,65,10607,2146984301,2147578075,2147407643,2147439826,2148108251,2149449261,2151406372,2147392685,122,-2,9,12060
1368725011,5805,100.8099975585937500,21.3722991943359380,36.6599006652832000,240.6961975097656200,44.3160514831543000,21.3656902313232420,29.0239696502685550,139,130,99,83,64,10589,2146993792,2147592521,2147434944,2147444681,2148405824,2149916745,2152041078,2147455771,123,-2,9,31859
1368725066,5803,98.6500015258789000,21.4307994842529300,36.6642990112304700,240.3800964355468800,42.4492111206054700,21.4227504730224600,29.0144405364990230,148,128,99,84,64,10581,2146996653,2147599954,2147447140,2147441289,2148572214,2150158582,2152377883,2147495561,3526,-2,9,59036
1368725121,5804,96.3899993896484400,21.5072994232177730,36.6735992431640600,239.1345062255859400,39.9897308349609400,21.4979496002197270,29.0402793884277340,159,130,99,84,64,10586,2147006427,2147607021,2147462902,2147441462,2148767323,2150460918,2152761051,2147539437,3162,-2,9,5963
1368725200,5805,92.3899993896484400,21.5736007690429700,36.6609001159668000,237.9644927978515600,37.1224098205566400,21.5856609344482420,29.0575904846191400,169,135,99,85,65,10565,2147017188,2147630646,2147499209,2147444982,2149232621,2151152539,2153688886,2147639680,2777,-2,9,65441
1368725255,5803,89.1699981689453100,21.6977005004882800,36.6665992736816400,237.6876068115234400,33.5478591918945300,21.6950492858886720,29.0250892639160160,194,133,102,88,65,10542,2147031707,2147647542,2147541604,2147447524,2149722880,2151889170,2154649417,2147744932,2415,-1,9,22685
1368725310,5805,85.9199981689453100,21.7679996490478500,36.6491012573242200,239.6139068603515600,31.3652305603027340,21.7618808746337900,28.9093399047851560,207,142,102,86,63,10503,2147056256,2147684946,2147601984,2147451300,2150435501,2152946313,2156025353,2147910948,2398,-2,9,27148
1368725365,5806,82.9100036621093800,21.8057994842529300,36.6305007934570300,245.3596954345703000,30.1083507537841800,21.8003692626953120,28.6355094909667970,210,145,101,88,64,10492,2147077376,2147714386,2147652681,2147456475,2151017792,2153764022,2157026998,2148040594,2093,-1,9,12763
1368725420,5804,80.1399993896484400,21.8297004699707030,36.6273002624511700,248.1416931152343800,29.3197002410888670,21.8245296478271500,28.5032005310058600,208,149,102,87,63,10505,2147055378,2147669760,2147551542,2147448850,2150118674,2151904877,2154072283,2147761243,2018,-1,9,43989
1368725475,5804,77.5999984741211000,21.7952003479003900,36.5965995788574200,250.3307037353515600,30.2163391113281250,21.7970695495605470,28.4193401336669920,189,144,104,87,64,10493,2147152073,2147826432,2147848621,2147471058,2153274203,2157138870,2161124333,2148526518,1657,-1,9,15028
1368725532,5805,75.1900024414062500,21.9053001403808600,36.6115989685058600,252.0460052490234400,25.9659500122070300,21.9272994995117200,28.2923793792724600,195,150,105,90,64,10469,2147153956,2147818102,2147807405,2147466468,2153413010,2157048274,2160496868,2148512996,1894,-1,9,39048
1368725587,5802,73.4100036621093800,22.1231002807617200,36.6430015563964840,252.9234008789062500,20.4367408752441400,22.0968494415283200,28.1859798431396500,169,140,102,88,64,10474,2147211538,2147916818,2147965403,2147478884,2155134528,2159798592,2163878418,2148877357,2182,-1,9,18261
1368725642,5807,72.1500015258789000,22.1513004302978500,36.6365013122558600,256.5535888671875000,18.9725399017334000,22.1417808532714840,28.0147209167480470,164,142,104,86,63,10485,2147254144,2147977883,2148069741,2147488996,2156280338,2161437622,2165737956,2149128365,1851,-1,9,26293
1368725745,5805,70.6299972534179700,22.1697998046875000,36.6055984497070300,265.5740966796875000,18.1267509460449220,22.1677303314209000,27.6342792510986330,115,136,102,89,64,10516,2147227355,2147929097,2148002002,2147486857,2155072603,2159274477,2162561572,2148746450,951,-1,9,59576
1368725871,5805,67.9899978637695300,22.1749992370605470,36.5227012634277340,276.9801025390625000,17.9430408477783200,22.1733703613281250,27.1850109100341800,96,146,103,90,62,10511,2147181193,2147837659,2147783387,2147468763,2153575049,2156517732,2158314148,2148282441,646,-1,9,10019
1368725950,5807,66.5899963378906200,22.1720008850097660,36.4874992370605500,284.1635131835937500,17.8473491668701170,22.1763095855712900,26.9131698608398440,89,145,106,88,62,10520,2147174262,2147826560,2147736201,2147461997,2153365193,2155946166,2157213110,2148145755,160,-2,8,54326
1368726089,5807,64.1900024414062500,22.2138004302978500,36.4561004638671900,279.7018127441406000,16.7496891021728500,22.2099990844726560,27.0669097900390620,86,157,104,88,62,10506,2147266486,2147953069,2147910957,2147471168,2155924361,2159655149,2161034395,2148558765,232,-2,9,9811
1368726167,5806,61.7599983215332000,22.2206993103027340,36.4455986022949200,275.9736022949219000,16.4115695953369140,22.2203807830810550,27.2049293518066400,87,147,109,94,63,10490,2147800173,2148739986,2149077138,2147575003,2171933019,2183495926,2186816786,2151581668,313,-1,8,40472
1368726222,5808,59.2200012207031250,22.2276000976562500,36.4327011108398440,278.5958862304687500,16.1554698944091800,22.2282390594482420,27.1016597747802730,81,148,108,90,60,10496,2147459574,2148197805,2148200429,2147496109,2161542619,2166949824,2167438116,2149245750,455,-1,9,23044
1368726277,5806,56.7799987792968750,22.2338008880615230,36.4272994995117200,285.9226074218750000,15.9189500808715820,22.2355098724365230,26.8247509002685550,79,140,109,93,61,10484,2147709238,2148538806,2148651520,2147536182,2170068132,2178697654,2178964608,2150555428,392,-2,9,18903
1368726332,5806,54.3800010681152340,22.2346000671386720,36.4271011352539060,284.2770996093750000,15.7856903076171880,22.2395992279052730,26.8839797973632800,83,142,108,91,61,10499,2148345572,2149445531,2149960082,2147679140,2188499712,2205228626,2206298304,2153995346,545,-2,9,31094
1368726473,5807,49.4199981689453100,22.2385997772216800,36.4252014160156250,280.0318908691406000,15.7696504592895500,22.2400894165039060,27.0426502227783200,75,146,107,92,58,10472,2147802889,2148606637,2148639835,2147545810,2172769920,2180413604,2178280045,2150620214,248,-2,9,65163
1368726509,5807,47.9099998474121100,22.2390995025634770,36.4245986938476560,277.2078857421875000,15.7043504714965820,22.2420997619628900,27.1490192413330080,76,147,108,91,60,10449,2148734838,2149866944,2150308516,2147726418,2203437897,2222921060,2220454692,2156357458,57,-1,8,41487
1368726542,5807,46.5499992370605500,22.2392005920410160,36.4241981506347660,278.3219909667969000,15.7011995315551760,22.2421894073486330,27.1065006256103500,75,143,107,91,61,10448,2148979638,2150201901,2150736786,2147760694,2210305517,2232011172,2228693421,2157297682,3574,-1,10,11808
1368726587,5803,44.6399993896484400,22.2413997650146500,36.4226989746093750,279.8693847656250000,15.5865297317504880,22.2457103729248050,27.0465297698974600,74,150,108,91,61,10447,2149152402,2150374171,2150880137,2147774921,2217360539,2240018614,2235076818,2158496192,3413,-1,8,36849
1368726632,5803,42.7799987792968750,22.2443008422851560,36.4230995178222660,283.7849121093750000,15.4211101531982420,22.2507896423339840,26.8978290557861330,73,149,108,93,61,10453,2149269869,2150504173,2150992548,2147789650,2220800996,2243569536,2237523099,2158970230,3318,-2,9,165
1368726689,5805,40.3800010681152340,22.2471008300781250,36.4225997924804700,295.7791137695312500,15.3140096664428710,22.2540798187255860,26.4615001678466800,70,151,107,92,62,10465,2148483081,2149410788,2149528393,2147635209,2192776210,2203453659,2196632566,2153274377,3335,-2,9,7299
1368726734,5806,38.4500007629394500,22.2542991638183600,36.4221000671386700,298.4234924316406000,14.2633600234985350,22.2863502502441400,26.3558502197265620,69,146,110,91,59,10455,2149899309,2151233124,2151868864,2147957787,2243094080,2270007122,2260576475,2163508324,3530,-2,8,49697
1368726779,5806,36.4399986267089840,22.6270999908447270,36.3622016906738300,295.5981140136719000,2.4317440986633300,22.6501007080078120,26.3137607574462900,70,144,108,91,63,10455,2150074596,2151421558,2152063826,2147978285,2249801078,2278046409,2266873673,2164552649,3423,-3,9,6108
1368726934,5807,34.9500007629394500,23.0116004943847660,36.3098983764648440,310.0610961914062500,-9.0649986267089840,23.0043201446533200,25.6809902191162100,68,140,108,88,59,10454,2150144347,2151480914,2152101622,2147985609,2252493577,2280870345,2269064000,2165448384,3408,-2,9,48988
1368727279,5805,32.8899993896484400,23.3150997161865230,36.2719001770019500,316.4060974121094000,-17.8930797576904300,23.2768592834472660,25.3682994842529300,69,138,107,89,61,10466,2150338422,2151709833,2152275501,2147970989,2262169206,2291732242,2278465444,2167680182,2618,-1,9,22364
1368727563,5808,30.9200000762939450,24.0415000915527340,36.1954002380371100,288.8526916503906000,-39.1365699768066400,23.9346694946289060,26.0593891143798830,69,132,104,88,61,10465,2150824822,2152278436,2152959478,2148107017,2278370349,2309607387,2294096484,2171788553,2307,-2,9,4465
1368727859,5807,28.5599994659423830,24.4645004272460940,36.1679992675781250,305.7844848632812500,-56.0450897216796900,24.4603996276855470,25.2729301452636720,68,132,103,86,60,10483,2150645769,2151954130,2152531648,2148141376,2279071926,2306531702,2289748800,2171810313,1922,-2,10,60991